Location: Alto Pass Reservoir
(37.5801°N, 89.3084°W)
Time: 20:27:51
(UTC+00:00)

Cosmos 1666 - Pass Details

Date: 02 July 2022
Orbit: 489 x 511 km, 82.5° (Epoch: 08 August)

Event Time Altitude Azimuth Distance (km) Brightness Sun altitude
Exits shadow 09:11:07 17° 178° (S) 1,334 4.4 -14.8°
Maximum altitude 09:13:56 73° 96° (E) 531 2.8 -14.4°
Drops below altitude 10° 09:17:40 10° 11° (NNE) 1,711 6.2 -13.8°
Sets 09:19:47 0° 10° (N) 2,595 7.2 -13.5°
